This demonstration page uses our WeatherBlox Daily Observations layout. Learn more.

Left ArrowRight Arrow

41.86663, -103.66717

Hourly Observations for July 17, 2020

Temp ( °F °C ) Dew Point ( °F °C ) Humidity (%) Winds ( mph kmh ) Pressure ( in mb ) Visibility ( mi km ) Precip ( " mm )
12:53 am 00:53 Clear 74 23.3 55 12.8 52 52 ENE 5 7 29.83 1010 10 16 N/A
1:53 am 01:53 Clear 73 22.8 54 12.2 51 51 ESE 8 13 29.81 1009 10 16 N/A
2:53 am 02:53 Clear 71 21.7 54 12.2 55 55 N N/A 29.82 1010 10 16 N/A
3:53 am 03:53 Clear 73 22.8 51 10.6 46 46 N N/A 29.81 1010 10 16 N/A
4:53 am 04:53 Clear 66 18.9 54 12.2 65 65 E 6 9 29.82 1010 10 16 N/A
5:53 am 05:53 Sunny 63 17.2 55 12.8 76 76 N N/A 29.84 1011 10 16 N/A
6:53 am 06:53 Sunny 69 20.6 53 11.7 57 57 undefined N/A 29.85 1011 10 16 N/A
7:53 am 07:53 Sunny 73 22.8 55 12.8 53 53 undefined N/A 29.85 1011 10 16 N/A
8:53 am 08:53 Sunny 79 26.1 57 13.9 47 47 N N/A 29.86 1011 10 16 N/A
9:53 am 09:53 Sunny 85 29.4 51 10.6 31 31 NW 6 9 29.86 1011 10 16 N/A
10:53 am 10:53 Sunny 88 31.1 49 9.4 26 26 W 6 9 29.85 1011 10 16 N/A
11:53 am 11:53 Sunny 94 34.4 50 10 22 22 N N/A 29.83 1010 10 16 N/A
12:53 pm 12:53 Sunny 97 36.1 42 5.6 15 15 VRB 7 11 29.80 1009 10 16 N/A
1:53 pm 13:53 Sunny 99 37.2 42 5.6 14 14 WSW 6 9 29.78 1008 10 16 N/A
2:53 pm 14:53 Sunny 100 37.8 38 3.3 12 12 WNW 7 11 29.75 1007 10 16 N/A
3:53 pm 15:53 Sunny 102 38.9 33 0.6 9 9 W 3 6 29.72 1007 10 16 N/A
4:53 pm 16:53 Sunny 101 38.3 36 2.2 10 10 S 9 15 29.72 1006 10 16 N/A
5:53 pm 17:53 Sunny 101 38.3 35 1.7 10 10 S 8 13 29.71 1006 10 16 N/A
6:53 pm 18:53 Sunny 98 36.7 48 8.9 18 18 E 7 11 29.70 1006 10 16 N/A
7:53 pm 19:53 Sunny 87 30.6 58 14.4 37 37 undefined N/A 29.71 1006 10 16 N/A
8:53 pm 20:53 Clear 84 28.9 53 11.7 34 34 N 5 7 29.72 1007 10 16 N/A
9:53 pm 21:53 Clear 77 25 55 12.8 47 47 NW 3 6 29.74 1007 10 16 N/A
10:53 pm 22:53 Clear 74 23.3 49 9.4 41 41 NNW 6 9 29.74 1007 10 16 N/A
11:53 pm 23:53 Clear 72 22.2 47 8.3 41 41 SSW 3 6 29.73 1007 10 16 N/A

Powered by AerisWeather